Regional Weather Roundup
Issued by NWS

Home | Current Version | Previous Version | Text Only | Print | Product List | Glossary On
Versions: 1 2 3 4 5 6 7 8 9 10 11 12 13 14 15 16 17 18 19 20 21 22 23 24 25 26 27 28 29 30 31 32 33 34 35 36 37 38 39 40 41 42 43 44 45 46 47 48 49 50
000
ASUS43 KLSX 221407
RWRMO

WEATHER SUMMARY FOR MISSOURI
NATIONAL WEATHER SERVICE SPRINGFIELD MO
800 AM CST WED NOV 22 2017

NOTE: "FAIR" INDICATES FEW OR NO CLOUDS BELOW 12,000 FEET WITH NO
       SIGNIFICANT WEATHER AND/OR OBSTRUCTIONS TO VISIBILITY.
       CURRENT SKY AND/OR WEATHER CONDITIONS ARE NOT AVAILABLE FOR
       CHILLICOTHE AND FARMINGTON.

MOZ001>031-035>038-043-044-053-054-221500-
...NORTHERN AND WESTERN MISSOURI...

CITY           SKY/WX    TMP DP  RH WIND       PRES   REMARKS
KANSAS CTY INT CLOUDY    21  14  74 NW5       30.42R WCI  15
KANSAS C DTWN  CLOUDY    25  14  63 CALM      30.44R
LEE`S SUMMIT   CLOUDY    23  15  71 CALM      30.42S
ST JOSEPH      CLOUDY    17  13  84 CALM      30.45R
CHILLICOTHE      N/A     18  14  84 CALM      30.44S
KIRKSVILLE     CLOUDY    20  17  88 CALM      30.41S

$$
MOZ066>068-077>081-088>096-101>105-221500-
...SOUTHWEST MISSOURI...

CITY           SKY/WX    TMP DP  RH WIND       PRES   REMARKS
SPRINGFIELD    CLOUDY    25  19  78 NW3       30.38R
JOPLIN         CLOUDY    23  20  88 N5        30.43R WCI  17
BRANSON        SUNNY     27  18  69 CALM      30.39S

$$
MOZ032>034-039>042-045>050-055>058-069>072-221500-
...CENTRAL MISSOURI...

CITY           SKY/WX    TMP DP  RH WIND       PRES   REMARKS
COLUMBIA       CLOUDY    24  16  71 N7        30.42R WCI  16
JEFFERSON CITY CLOUDY    25  16  68 CALM      30.45R
ROLLA          CLOUDY    23  18  81 NE5       30.40S WCI  17
SEDALIA        CLOUDY    24  17  74 N3        30.44R
WHITEMAN AFB   CLEAR     21  15  77 CALM      30.39R
WARRENSBURG    CLOUDY    21  16  79 CALM      30.44R
OSAGE BEACH    CLOUDY    24  18  77 CALM      30.43R

$$
MOZ051-052-059>065-221500-
...EAST CENTRAL MISSOURI...

CITY           SKY/WX    TMP DP  RH WIND       PRES   REMARKS
ST LOUIS INTL  CLOUDY    26  18  71 N6        30.43R WCI  19
SPIRIT OF STL  MOSUNNY   26  20  77 SW3       30.44R
ST CHARLES     CLOUDY    26  17  68 N6        30.43R WCI  19

$$
MOZ072>076-082>087-097>100-106>115-221500-
...SOUTH CENTRAL AND SOUTHEAST MISSOURI...

CITY           SKY/WX    TMP DP  RH WIND       PRES   REMARKS
CAPE GIRARDEAU MOSUNNY   28  20  71 N7        30.41R WCI  21
FARMINGTON     MOSUNNY   26  20  77 N6        30.40R WCI  19
POPLAR BLUFF   CLOUDY    32  21  64 N10       30.41R WCI  24
WEST PLAINS    CLOUDY    28  17  63 NE6       30.38R WCI  22

$$


USA.gov is the U.S. government's official web portal to all federal, state and local government web resources and services.